| time (UTC) | temp F | wind direction | speed knots | gust knots | rain 1hr in | rain 24hr in | rain mn in | humidity % | barometer mb |
| 20260509032347 | 80 | 0 | 0.9 | 2.6 | 0.00 | 0.00 | 0.00 | 5 | 1007.2 |
| 20260509031350 | 80 | 0 | 1.7 | 4.3 | 0.00 | 0.00 | 0.00 | 5 | 1007.0 |
| 20260509030334 | 80 | 0 | 2.6 | 4.3 | 0.00 | 0.00 | 0.00 | 5 | 1006.9 |
| 20260509025350 | 80 | 0 | 2.6 | 4.3 | 0.00 | 0.00 | 0.00 | 5 | 1006.9 |
| 20260509024340 | 80 | 0 | 1.7 | 2.6 | 0.00 | 0.00 | 0.00 | 5 | 1006.8 |
| 20260509023357 | 82 | 0 | 0.0 | 2.6 | 0.00 | 0.00 | 0.00 | 4 | 1006.7 |
| 20260509022403 | 83 | 0 | 0.0 | 0.9 | 0.00 | 0.00 | 0.00 | 5 | 1006.7 |
| 20260509021333 | 84 | 0 | 0.9 | 7.0 | 0.00 | 0.00 | 0.00 | 3 | 1006.7 |
| 20260509020303 | 85 | 0 | 2.6 | 7.0 | 0.00 | 0.00 | 0.00 | 2 | 1006.4 |
| 20260509014107 | 88 | 0 | 3.5 | 8.7 | 0.00 | 0.00 | 0.00 | 1 | 1006.3 |
| 20260509013122 | 88 | 0 | 3.5 | 8.7 | 0.00 | 0.00 | 0.00 | 1 | 1006.3 |
| 20260509010951 | 89 | 0 | 3.5 | 8.7 | 0.00 | 0.00 | 0.00 | 1 | 1006.4 |
| 20260509010002 | 90 | 0 | 3.5 | 11.3 | 0.00 | 0.00 | 0.00 | 1 | 1006.3 |
| 20260509004946 | 90 | 0 | 2.6 | 11.3 | 0.00 | 0.00 | 0.00 | 1 | 1006.4 |
| 20260509003934 | 90 | 0 | 4.3 | 11.3 | 0.00 | 0.00 | 0.00 | 1 | 1006.4 |
| 20260509002947 | 90 | 0 | 6.1 | 11.3 | 0.00 | 0.00 | 0.00 | 1 | 1006.5 |
| 20260509001923 | 91 | 0 | 4.3 | 10.4 | 0.00 | 0.00 | 0.00 | 1 | 1006.5 |
| 20260508235716 | 91 | 0 | 5.2 | 14.8 | 0.00 | 0.00 | 0.00 | 1 | 1006.5 |
| 20260508234728 | 91 | 0 | 5.2 | 13.0 | 0.00 | 0.00 | 0.00 | 1 | 1006.6 |
| 20260508233715 | 91 | 0 | 5.2 | 13.0 | 0.00 | 0.00 | 0.00 | 1 | 1006.6 |
| 20260508232740 | 91 | 0 | 7.0 | 11.3 | 0.00 | 0.00 | 0.00 | 1 | 1006.7 |
| 20260508231756 | 91 | 0 | 7.0 | 13.9 | 0.00 | 0.00 | 0.00 | 1 | 1006.6 |
| 20260508230815 | 91 | 0 | 6.1 | 14.8 | 0.00 | 0.00 | 0.00 | 1 | 1006.7 |
| 20260508225833 | 91 | 0 | 5.2 | 14.8 | 0.00 | 0.00 | 0.00 | 1 | 1006.9 |
| 20260508224824 | 91 | 0 | 7.0 | 12.2 | 0.00 | 0.00 | 0.00 | 1 | 1007.0 |
| 20260508222701 | 91 | 0 | 6.1 | 13.9 | 0.00 | 0.00 | 0.00 | 1 | 1007.1 |
| 20260508220527 | 91 | 0 | 2.6 | 11.3 | 0.00 | 0.00 | 0.00 | 1 | 1007.4 |
| 20260508215453 | 92 | 0 | 4.3 | 10.4 | 0.00 | 0.00 | 0.00 | 1 | 1007.6 |
| 20260508214429 | 92 | 0 | 3.5 | 7.8 | 0.00 | 0.00 | 0.00 | 2 | 1007.8 |
| 20260508213421 | 91 | 0 | 5.2 | 13.9 | 0.00 | 0.00 | 0.00 | 2 | 1008.1 |
| 20260508212425 | 91 | 0 | 4.3 | 13.9 | 0.00 | 0.00 | 0.00 | 2 | 1008.4 |
| 20260508211432 | 91 | 0 | 5.2 | 10.4 | 0.00 | 0.00 | 0.00 | 2 | 1008.4 |
| 20260508210406 | 90 | 0 | 6.1 | 14.8 | 0.00 | 0.00 | 0.00 | 2 | 1008.5 |
| 20260508205410 | 91 | 0 | 7.0 | 16.5 | 0.00 | 0.00 | 0.00 | 2 | 1008.8 |
| 20260508204433 | 90 | 0 | 4.3 | 17.4 | 0.00 | 0.00 | 0.00 | 3 | 1008.9 |
| 20260508203451 | 90 | 0 | 5.2 | 17.4 | 0.00 | 0.00 | 0.00 | 2 | 1008.8 |
| 20260508202455 | 89 | 0 | 3.5 | 13.0 | 0.00 | 0.00 | 0.00 | 3 | 1008.9 |
| 20260508201422 | 90 | 0 | 6.1 | 13.0 | 0.00 | 0.00 | 0.00 | 3 | 1009.1 |
| 20260508200400 | 89 | 0 | 5.2 | 12.2 | 0.00 | 0.00 | 0.00 | 3 | 1009.2 |
| 20260508195402 | 90 | 0 | 4.3 | 11.3 | 0.00 | 0.00 | 0.00 | 3 | 1009.3 |
| 20260508193211 | 89 | 0 | 4.3 | 12.2 | 0.00 | 0.00 | 0.00 | 3 | 1009.5 |
| 20260508192223 | 88 | 0 | 3.5 | 10.4 | 0.00 | 0.00 | 0.00 | 5 | 1009.6 |
| 20260508191230 | 88 | 0 | 3.5 | 10.4 | 0.00 | 0.00 | 0.00 | 4 | 1009.7 |
| 20260508185112 | 88 | 0 | 3.5 | 10.4 | 0.00 | 0.00 | 0.00 | 7 | 1010.1 |
| 20260508184116 | 87 | 0 | 3.5 | 10.4 | 0.00 | 0.00 | 0.00 | 7 | 1010.3 |
| 20260508183116 | 86 | 0 | 2.6 | 9.6 | 0.00 | 0.00 | 0.00 | 7 | 1010.5 |
| 20260508182120 | 85 | 0 | 4.3 | 11.3 | 0.00 | 0.00 | 0.00 | 6 | 1010.6 |
| 20260508181050 | 85 | 0 | 2.6 | 11.3 | 0.00 | 0.00 | 0.00 | 8 | 1010.6 |
| 20260508173730 | 84 | 0 | 3.5 | 9.6 | 0.00 | 0.00 | 0.00 | 10 | 1010.9 |
| 20260508172752 | 84 | 0 | 2.6 | 9.6 | 0.00 | 0.00 | 0.00 | 9 | 1011.0 |
| 20260508171804 | 83 | 0 | 1.7 | 8.7 | 0.00 | 0.00 | 0.00 | 10 | 1011.2 |
| 20260508170751 | 82 | 0 | 1.7 | 8.7 | 0.00 | 0.00 | 0.00 | 12 | 1011.3 |
| 20260508165724 | 81 | 0 | 2.6 | 7.8 | 0.00 | 0.00 | 0.00 | 10 | 1011.4 |
| 20260508164740 | 80 | 0 | 2.6 | 7.8 | 0.00 | 0.00 | 0.00 | 11 | 1011.4 |
| 20260508163800 | 79 | 0 | 1.7 | 7.8 | 0.00 | 0.00 | 0.00 | 12 | 1011.4 |
| 20260508162823 | 78 | 0 | 0.9 | 4.3 | 0.00 | 0.00 | 0.00 | 12 | 1011.4 |
| 20260508161749 | 77 | 0 | 0.9 | 4.3 | 0.00 | 0.00 | 0.00 | 14 | 1011.3 |
| 20260508160749 | 76 | 0 | 0.0 | 0.0 | 0.00 | 0.00 | 0.00 | 15 | 1011.3 |
| 20260508155731 | 74 | 0 | 0.0 | 0.0 | 0.00 | 0.00 | 0.00 | 18 | 1011.2 |
| 20260508153529 | 70 | 0 | 1.7 | 6.1 | 0.00 | 0.00 | 0.00 | 25 | 1011.2 |
| 20260508152512 | 68 | 0 | 1.7 | 6.1 | 0.00 | 0.00 | 0.00 | 27 | 1011.3 |
| 20260508150422 | 64 | 0 | 1.7 | 4.3 | 0.00 | 0.00 | 0.00 | 31 | 1011.5 |
| 20260508145439 | 62 | 0 | 1.7 | 4.3 | 0.00 | 0.00 | 0.00 | 33 | 1011.4 |
| 20260508143350 | 59 | 0 | 1.7 | 4.3 | 0.00 | 0.00 | 0.00 | 36 | 1011.5 |
| 20260508142327 | 58 | 0 | 1.7 | 4.3 | 0.00 | 0.00 | 0.00 | 37 | 1011.6 |
| 20260508141309 | 57 | 0 | 0.9 | 3.5 | 0.00 | 0.00 | 0.00 | 38 | 1011.5 |
| 20260508140239 | 55 | 0 | 0.9 | 3.5 | 0.00 | 0.00 | 0.00 | 39 | 1011.4 |
| 20260508135237 | 54 | 0 | 0.9 | 3.5 | 0.00 | 0.00 | 0.00 | 39 | 1011.5 |
| 20260508134208 | 53 | 0 | 1.7 | 3.5 | 0.00 | 0.00 | 0.00 | 39 | 1011.4 |
| 20260508133231 | 52 | 0 | 0.9 | 3.5 | 0.00 | 0.00 | 0.00 | 41 | 1011.4 |
| 20260508132206 | 51 | 0 | 0.9 | 4.3 | 0.00 | 0.00 | 0.00 | 43 | 1011.3 |
| 20260508131219 | 49 | 0 | 0.9 | 4.3 | 0.00 | 0.00 | 0.00 | 44 | 1011.2 |
| 20260508130153 | 49 | 0 | 0.0 | 0.9 | 0.00 | 0.00 | 0.00 | 44 | 1011.2 |
| 20260508125126 | 49 | 0 | 0.0 | 1.7 | 0.00 | 0.00 | 0.00 | 43 | 1011.0 |
| 20260508124115 | 50 | 0 | 0.0 | 0.9 | 0.00 | 0.00 | 0.00 | 42 | 1010.9 |
| 20260508121956 | 49 | 0 | 0.0 | 0.0 | 0.00 | 0.00 | 0.00 | 43 | 1010.6 |
| 20260508121011 | 49 | 0 | 0.9 | 2.6 | 0.00 | 0.00 | 0.00 | 43 | 1010.5 |
| 20260508114800 | 50 | 0 | 0.0 | 1.7 | 0.00 | 0.00 | 0.00 | 43 | 1010.4 |
| 20260508113726 | 50 | 0 | 0.0 | 2.6 | 0.00 | 0.00 | 0.00 | 42 | 1010.4 |
| 20260508112715 | 51 | 0 | 0.0 | 2.6 | 0.00 | 0.00 | 0.00 | 41 | 1010.3 |
| 20260508111656 | 51 | 0 | 0.0 | 1.7 | 0.00 | 0.00 | 0.00 | 41 | 1010.2 |
| 20260508104432 | 53 | 0 | 0.9 | 1.7 | 0.00 | 0.00 | 0.00 | 38 | 1010.2 |
| 20260508102323 | 54 | 0 | 0.9 | 4.3 | 0.00 | 0.00 | 0.00 | 37 | 1010.0 |
| 20260508101303 | 54 | 0 | 1.7 | 4.3 | 0.00 | 0.00 | 0.00 | 36 | 1010.1 |
| 20260508100230 | 54 | 0 | 0.9 | 2.6 | 0.00 | 0.00 | 0.00 | 36 | 1010.0 |
| 20260508095247 | 54 | 0 | 0.0 | 1.7 | 0.00 | 0.00 | 0.00 | 35 | 1010.0 |
| 20260508094251 | 55 | 0 | 0.0 | 0.9 | 0.00 | 0.00 | 0.00 | 34 | 1009.9 |
| 20260508093307 | 55 | 0 | 2.6 | 4.3 | 0.00 | 0.00 | 0.00 | 34 | 1009.8 |
| 20260508092251 | 56 | 0 | 0.9 | 3.5 | 0.00 | 0.00 | 0.00 | 34 | 1009.9 |
| 20260508091238 | 57 | 0 | 0.0 | 3.5 | 0.00 | 0.00 | 0.00 | 32 | 1010.0 |
| 20260508090242 | 58 | 0 | 0.0 | 1.7 | 0.00 | 0.00 | 0.00 | 31 | 1010.1 |
| 20260508085248 | 58 | 0 | 0.0 | 1.7 | 0.00 | 0.00 | 0.00 | 31 | 1010.1 |
| 20260508084218 | 58 | 0 | 0.0 | 1.7 | 0.00 | 0.00 | 0.00 | 31 | 1010.2 |
| 20260508083238 | 58 | 0 | 0.9 | 0.9 | 0.00 | 0.00 | 0.00 | 30 | 1010.2 |
| 20260508082222 | 59 | 0 | 0.0 | 2.6 | 0.00 | 0.00 | 0.00 | 30 | 1010.1 |
| 20260508081201 | 59 | 0 | 0.0 | 3.5 | 0.00 | 0.00 | 0.00 | 29 | 1010.4 |
| 20260508080152 | 60 | 0 | 0.0 | 2.6 | 0.00 | 0.00 | 0.00 | 28 | 1010.4 |
| 20260508075210 | 61 | 0 | 0.0 | 0.0 | 0.00 | 0.00 | 0.00 | 27 | 1010.5 |
| 20260508074152 | 60 | 0 | 0.0 | 1.7 | 0.00 | 0.00 | 0.00 | 28 | 1010.6 |
| 20260508073154 | 60 | 0 | 0.0 | 0.0 | 0.00 | 0.00 | 0.00 | 28 | 1010.6 |
| 20260508072216 | 60 | 0 | 0.0 | 1.7 | 0.00 | 0.00 | 0.00 | 28 | 1010.7 |
| 20260508071217 | 61 | 0 | 0.0 | 0.9 | 0.00 | 0.00 | 0.00 | 26 | 1010.8 |
| 20260508070224 | 61 | 0 | 0.0 | 2.6 | 0.00 | 0.00 | 0.00 | 27 | 1010.8 |
| 20260508064034 | 61 | 0 | 0.0 | 0.9 | 0.00 | 0.00 | 0.00 | 25 | 1010.8 |
| 20260508063054 | 62 | 0 | 0.0 | 0.9 | 0.00 | 0.00 | 0.00 | 25 | 1010.9 |
| 20260508062058 | 63 | 0 | 0.0 | 0.0 | 0.00 | 0.00 | 0.00 | 24 | 1011.1 |
| 20260508061047 | 64 | 0 | 0.9 | 2.6 | 0.00 | 0.00 | 0.00 | 22 | 1011.1 |
| 20260508060026 | 66 | 0 | 0.0 | 0.0 | 0.00 | 0.00 | 0.00 | 20 | 1011.0 |
| 20260508055032 | 68 | 0 | 0.0 | 0.0 | 0.00 | 0.00 | 0.00 | 19 | 1010.9 |
| 20260508054038 | 68 | 0 | 2.6 | 4.3 | 0.00 | 0.00 | 0.00 | 18 | 1010.9 |
| 20260508053019 | 68 | 0 | 3.5 | 7.8 | 0.00 | 0.00 | 0.00 | 19 | 1011.0 |
| 20260508051957 | 69 | 0 | 3.5 | 7.8 | 0.00 | 0.00 | 0.00 | 18 | 1011.3 |
| 20260508051018 | 69 | 0 | 1.7 | 7.0 | 0.00 | 0.00 | 0.00 | 19 | 1011.7 |
| 20260508045948 | 69 | 0 | 1.7 | 4.3 | 0.00 | 0.00 | 0.00 | 19 | 1011.8 |
| 20260508045007 | 70 | 0 | 1.7 | 4.3 | 0.00 | 0.00 | 0.00 | 18 | 1011.6 |
| 20260508044031 | 70 | 0 | 0.9 | 7.0 | 0.00 | 0.00 | 0.00 | 17 | 1011.1 |
| 20260508041839 | 70 | 0 | 1.7 | 6.1 | 0.00 | 0.00 | 0.00 | 17 | 1010.8 |
| 20260508035715 | 71 | 0 | 0.0 | 3.5 | 0.00 | 0.00 | 0.00 | 17 | 1010.4 |
| 20260508034731 | 72 | 0 | 2.6 | 8.7 | 0.00 | 0.00 | 0.00 | 15 | 1010.2 |
| 20260508033702 | 72 | 0 | 4.3 | 8.7 | 0.00 | 0.00 | 0.00 | 14 | 1009.6 |